Theta_e
309 309 309 309 309 309 309 310 310 309 310 309 309 309 309 310 311 311 315 317 317 314 311 316 317 323 324 323 322 323 325 326 329 332 336 335 337 335 335 335 340 337 338 346 355
310 309 309 309 309 309 309 310 310 309 310 309 309 309 309 310 310 317 317 315 312 311 312 318 318 322 323 324 324 325 326 325 327 329 331 333 335 335 334 334 336 334 336 344 353
310 309 309 309 309 309 309 310 310 309 310 309 309 309 310 310 318 319 317 316 314 312 313 319 319 322 323 323 324 325 325 325 325 325 326 329 331 333 334 333 332 333 338 346 349
309 309 309 309 309 309 309 310 310 311 311 311 309 310 310 311 321 320 316 316 315 312 318 319 318 320 323 324 323 325 325 324 324 325 325 327 328 331 333 332 332 331 333 343 348
309 309 309 309 309 309 310 311 313 313 314 314 314 313 312 321 318 316 314 313 313 313 317 318 319 319 323 323 323 324 325 324 324 324 324 325 326 327 330 330 331 330 331 342 347
308 309 309 309 309 309 310 313 314 314 314 314 314 314 314 320 315 317 318 319 319 317 318 317 318 320 321 321 322 322 323 323 323 323 323 324 325 325 326 328 330 330 330 334 342
308 309 309 309 309 309 312 314 314 314 313 313 314 314 319 318 316 317 315 315 319 322 320 318 317 319 320 322 321 322 323 323 323 322 323 322 323 324 324 326 329 331 330 331 338
308 308 309 309 310 312 314 314 313 313 313 315 315 316 321 318 317 317 317 316 320 322 321 318 317 318 320 321 322 322 323 323 324 323 322 322 322 324 323 323 327 328 331 332 336
308 308 309 310 312 313 313 313 313 311 314 311 317 322 322 317 319 318 318 319 319 317 316 316 318 319 320 321 322 323 322 322 322 324 324 324 323 324 323 323 323 326 328 332 333
308 309 309 310 311 311 310 312 313 312 313 315 320 320 320 320 318 317 318 318 318 318 316 315 317 319 320 322 321 321 322 322 322 324 323 323 323 324 324 324 323 324 327 328 330
308 309 309 309 310 309 312 316 319 322 320 318 318 319 319 318 317 318 318 318 319 319 321 318 319 321 321 322 322 322 322 323 324 324 324 323 324 324 324 324 325 324 325 326 327
308 309 309 309 310 311 314 313 312 311 314 316 318 318 317 317 318 318 319 319 320 321 321 322 322 321 321 321 322 322 322 322 323 323 323 323 323 324 324 324 324 324 324 325 327
308 309 309 309 310 314 313 312 312 312 316 318 318 319 319 318 319 318 319 320 321 322 322 322 323 322 321 321 320 320 321 321 321 322 322 322 322 323 323 323 323 323 323 324 324
308 309 309 309 314 313 315 312 312 313 319 321 319 319 318 319 319 319 318 319 321 322 322 322 322 321 321 320 321 321 321 320 320 321 322 323 322 323 324 324 324 324 323 323 324
308 308 309 309 310 314 311 311 313 315 324 320 320 317 318 320 320 320 318 319 321 321 322 321 321 322 321 320 320 320 321 321 321 322 322 322 322 322 324 324 325 325 324 323 323
308 307 308 312 313 313 310 312 314 322 324 318 318 319 320 319 319 319 319 318 320 322 322 321 321 321 321 321 321 320 320 321 321 321 322 322 322 322 323 325 325 325 324 324 324
307 307 308 310 311 310 310 315 322 323 319 318 317 316 317 319 318 319 320 322 322 323 323 322 322 322 321 321 321 321 321 322 322 322 321 322 322 323 324 325 326 327 327 328 328
305 307 312 312 310 310 314 318 321 321 319 316 315 315 316 316 317 317 318 318 319 319 321 322 323 323 323 322 322 322 322 322 323 323 323 323 322 322 324 326 326 325 326 327 328
305 312 314 311 309 310 315 320 320 318 315 314 314 315 315 316 314 316 317 317 317 315 319 320 321 322 322 323 323 323 323 323 326 324 323 323 323 323 327 328 327 326 326 328 328
305 313 315 309 309 312 317 318 317 313 312 313 313 315 315 316 315 315 314 314 312 311 314 317 319 318 320 319 319 322 323 324 324 327 327 324 323 323 327 327 327 327 327 327 327
311 312 312 307 310 315 318 317 314 311 309 312 313 314 314 313 312 311 312 312 310 311 311 313 314 314 315 316 317 319 321 322 323 326 328 326 323 328 328 329 328 327 325 325 326
309 313 310 305 314 312 312 310 308 309 308 309 309 310 310 311 310 311 310 311 308 308 309 311 312 313 313 315 315 315 317 322 324 326 325 325 327 327 327 327 326 324 322 323 324
309 310 309 308 311 310 310 309 308 308 308 308 309 309 309 309 309 310 309 308 306 307 309 310 310 311 311 312 313 312 314 315 318 321 324 326 327 323 323 322 319 319 318 319 321
309 313 308 308 307 308 308 308 308 308 307 307 308 308 308 309 310 309 309 308 306 306 305 305 307 308 310 311 310 310 313 313 314 316 318 319 321 321 322 323 321 318 315 316 318
309 310 307 308 308 307 308 308 307 308 308 308 308 308 308 309 310 310 310 309 307 306 305 308 309 308 308 308 307 307 307 308 308 311 313 314 315 316 317 316 315 312 311 314 317
305 305 306 305 307 308 306 308 308 308 307 309 308 309 309 309 309 309 309 309 310 309 309 308 309 308 307 307 307 306 306 306 307 307 308 309 310 312 311 309 309 309 310 312 315
304 304 304 305 307 308 309 308 306 306 306 307 308 308 308 309 309 308 307 307 308 309 308 308 309 309 309 308 308 308 307 307 307 308 308 308 309 310 310 310 309 309 309 309 309
Wind_Speed
21 21 20 20 19 18 15 13 10 8 8 8 9 9 9 10 11 13 12 12 11 16 11 12 16 17 18 21 23 21 15 19 24 25 22 15 9 14 8 15 9 7 7 5 12
22 22 21 21 19 17 15 12 10 9 8 8 8 8 8 10 13 16 15 17 18 14 14 17 20 19 22 23 24 18 16 24 22 22 20 22 12 17 10 16 8 12 8 3 13
24 23 22 21 18 16 14 12 10 9 8 8 7 7 7 9 12 4 11 4 8 15 16 14 17 20 23 24 26 23 21 20 25 28 27 17 18 12 11 14 16 10 7 8 15
25 25 24 22 19 15 12 9 7 7 7 7 7 7 6 4 4 5 7 4 1 9 13 15 21 23 23 22 24 23 25 26 31 23 17 15 23 25 16 19 6 5 4 8 14
26 26 24 22 18 14 10 7 6 6 7 9 8 7 5 7 9 7 9 6 6 8 15 17 19 24 22 24 24 20 23 27 22 26 24 21 22 25 18 21 23 6 7 10 11
27 27 24 21 17 12 8 6 7 8 10 10 8 7 5 15 2 3 5 5 6 12 14 17 18 19 21 25 22 23 24 23 27 20 22 23 23 24 27 24 23 19 20 13 13
26 26 23 19 15 10 7 8 9 11 12 9 6 5 10 13 4 6 7 6 8 12 15 16 20 15 21 16 26 19 22 19 20 24 21 22 23 26 31 28 24 33 18 20 15
25 25 21 17 13 9 8 11 12 12 7 2 2 3 8 5 6 8 9 8 7 10 13 13 17 16 20 14 10 16 20 20 21 22 23 21 24 24 31 34 34 25 29 23 20
24 23 19 15 12 11 12 14 13 9 2 5 1 6 6 5 4 3 7 8 7 7 7 10 12 17 16 16 16 18 17 24 24 21 23 23 24 21 28 29 35 33 28 37 27
24 22 16 12 11 12 16 12 9 5 6 2 7 8 8 9 5 6 6 9 10 10 9 10 12 14 14 14 16 20 21 20 21 16 17 18 23 21 25 24 29 31 24 27 34
23 21 16 13 10 13 16 14 6 3 9 15 9 9 3 6 9 9 10 15 11 13 14 17 11 16 18 19 21 21 21 22 14 17 17 16 18 21 22 25 19 20 24 31 30
23 22 19 14 13 10 11 8 6 8 12 14 12 10 6 5 9 13 14 16 16 16 18 13 16 17 16 16 17 18 20 23 19 19 14 17 21 20 20 19 23 23 26 25 29
25 24 21 14 9 6 7 5 11 9 9 11 11 11 5 7 8 16 15 19 16 18 18 18 17 16 12 16 16 19 19 20 21 21 22 20 23 23 24 28 28 27 29 27 30
26 26 21 10 3 7 3 11 12 4 6 12 11 8 8 6 9 6 11 17 17 21 19 20 20 20 20 15 17 20 17 18 19 17 17 19 18 22 23 26 25 30 30 29 29
26 26 19 9 4 3 8 11 6 1 6 4 9 3 4 11 3 12 8 12 19 19 16 20 20 22 19 20 17 18 19 19 17 18 20 22 16 20 16 19 16 17 25 30 28
26 23 11 8 6 5 12 6 1 7 8 6 2 3 10 7 5 2 8 9 10 15 19 24 22 21 16 14 17 17 19 22 20 18 17 24 22 21 18 21 22 14 19 17 19
28 21 7 6 11 14 7 4 7 8 4 5 1 2 7 8 7 6 7 11 10 13 19 23 25 24 19 19 18 16 16 13 16 15 19 22 22 20 15 20 5 6 6 8 8
27 19 5 2 16 9 4 9 9 9 4 5 4 9 12 9 12 6 12 12 10 9 16 18 17 19 18 17 21 24 22 16 23 18 20 21 23 20 17 9 2 5 1 4 7
28 10 4 9 14 6 10 10 9 9 6 8 12 14 15 5 6 4 11 11 9 8 10 14 20 12 2 9 10 17 21 21 25 26 21 22 21 18 12 10 8 5 1 5 7
28 9 5 16 12 6 9 14 5 7 9 8 11 4 13 5 1 7 10 7 2 4 9 6 12 21 8 4 16 19 18 15 14 23 26 21 23 18 21 17 11 11 8 3 4
17 12 8 20 8 11 8 7 5 8 10 6 9 11 11 9 10 12 8 6 2 8 9 13 9 18 22 12 17 17 18 20 19 17 15 19 18 11 4 7 12 8 5 4 3
14 6 17 18 13 3 7 6 6 7 7 7 6 9 10 8 8 10 9 4 3 9 11 9 7 14 19 16 5 11 16 21 10 18 20 19 12 12 7 10 3 7 6 6 6
15 7 10 9 4 6 7 8 4 7 6 4 6 2 4 9 5 5 4 4 4 10 7 9 7 12 15 17 18 12 19 16 17 16 18 12 12 10 2 2 2 3 7 9 9
10 4 5 7 6 5 6 3 4 2 9 5 9 5 9 10 9 7 7 6 4 9 5 4 11 15 14 18 9 8 16 13 15 14 20 21 27 23 7 15 21 15 14 11 9
8 4 3 4 7 9 7 9 7 5 3 9 7 6 8 9 12 12 7 6 9 11 10 8 14 16 17 16 16 17 17 17 16 17 20 21 24 15 11 3 18 23 13 13 10
8 6 7 16 7 9 4 0 4 5 6 8 4 7 7 10 11 14 13 9 9 4 13 5 13 14 17 18 18 21 21 20 21 22 22 22 22 20 22 5 18 15 14 9 13
6 5 5 7 6 7 4 5 5 9 8 7 8 7 10 9 11 15 15 16 16 14 12 12 12 13 17 17 18 14 17 20 21 22 19 20 20 17 14 10 11 14 13 12 12
Wind_Direction
360 355 351 347 342 338 335 327 318 313 305 304 301 297 289 284 282 277 261 247 236 245 229 212 214 218 219 226 223 227 252 243 246 252 257 265 248 241 238 263 176 205 246 51 135
354 351 346 342 338 334 331 324 315 311 305 304 302 304 300 296 292 264 259 267 250 230 204 205 210 211 221 225 221 229 230 242 248 258 263 260 248 251 187 225 202 210 207 204 170
350 347 342 338 334 331 329 326 321 314 304 299 298 304 309 310 295 207 222 254 250 220 201 218 219 217 229 226 221 223 244 245 245 259 269 296 296 252 253 227 216 192 142 188 186
348 346 340 336 332 328 327 328 327 317 316 309 303 305 305 292 305 205 211 246 5 179 202 218 219 221 229 236 229 232 245 249 268 273 262 256 269 272 252 255 268 149 202 191 196
348 346 341 338 334 329 326 328 327 319 317 314 300 295 294 244 260 240 249 252 262 206 211 215 222 227 229 239 243 236 250 253 254 261 273 261 252 259 246 249 264 231 228 190 204
349 348 345 342 336 332 322 326 327 321 312 301 285 276 265 258 213 219 179 231 210 215 224 224 230 236 243 246 249 248 248 257 262 250 254 253 256 258 248 252 262 264 246 231 201
353 350 348 348 346 341 328 327 320 319 310 294 261 248 263 252 240 216 210 220 241 234 235 235 230 243 240 265 255 254 265 255 249 258 247 252 255 246 250 249 224 240 257 240 209
354 352 352 356 359 353 338 323 317 318 310 309 231 210 260 211 226 237 235 230 229 216 228 240 226 243 239 266 247 263 249 257 248 237 236 239 253 245 241 244 243 227 248 242 227
355 354 353 355 354 354 344 326 318 322 249 309 74 198 222 195 183 214 203 205 191 196 211 206 220 234 229 244 255 237 246 239 248 248 231 217 247 250 252 238 237 241 220 243 234
353 355 350 348 350 347 347 354 327 330 313 245 261 236 218 206 196 235 199 192 176 174 172 201 209 227 230 232 241 245 228 235 258 260 206 249 256 243 257 247 245 236 231 227 250
350 352 344 334 336 357 1 330 329 242 240 270 295 271 227 238 238 217 193 180 191 203 213 197 216 221 231 232 257 275 284 284 273 245 253 250 252 252 238 251 250 252 235 238 216
346 346 344 330 318 319 1 6 7 315 298 265 249 250 257 247 210 200 186 195 202 213 214 206 228 249 249 247 261 252 261 266 271 265 266 252 252 260 264 253 253 252 247 236 236
343 341 339 338 335 11 326 347 332 304 264 227 218 233 212 213 218 182 201 210 210 223 233 234 232 225 236 256 245 251 252 264 258 260 237 253 259 253 253 252 250 248 249 247 246
343 340 337 343 1 315 271 329 331 270 272 171 200 196 216 215 201 192 219 243 228 241 236 246 236 249 259 240 252 252 245 247 266 267 255 238 255 251 237 238 243 241 241 246 242
344 340 342 340 283 330 310 321 314 277 274 126 139 90 215 227 82 184 215 232 249 253 236 251 255 238 252 258 248 252 264 260 244 249 266 260 264 266 261 245 238 231 238 238 236
343 339 350 351 342 300 316 305 192 235 246 135 154 206 219 202 201 306 226 231 268 262 256 261 260 267 269 253 242 253 256 252 258 261 245 244 250 254 244 238 239 212 250 249 247
341 334 305 22 326 312 297 226 247 243 124 125 191 295 293 266 250 275 249 233 262 243 238 239 234 243 233 249 257 248 239 251 245 235 246 247 245 249 262 266 24 49 17 354 331
344 332 279 323 326 311 266 239 253 288 334 79 274 289 265 356 255 253 266 254 187 307 279 278 267 225 199 220 248 240 235 236 247 252 259 241 233 244 234 124 166 205 319 346 339
346 343 278 309 328 296 253 242 276 16 12 338 304 260 269 187 274 240 252 306 18 351 302 305 267 249 206 271 266 258 257 256 255 272 276 272 267 273 145 160 173 151 10 14 337
341 329 231 332 318 272 246 255 322 31 334 304 287 293 294 292 233 276 293 85 333 345 323 335 287 282 260 238 263 264 276 275 248 253 254 259 262 260 191 188 162 151 146 92 336
353 309 4 333 299 245 254 22 352 22 348 327 318 300 292 300 317 290 287 99 36 317 312 300 270 279 292 258 266 262 239 250 264 261 256 270 257 25 30 100 150 118 101 79 12
352 312 345 345 280 2 2 3 347 329 315 298 305 291 289 304 287 280 281 8 65 322 300 329 308 284 278 283 342 286 279 282 256 255 266 272 250 55 53 117 105 92 50 22 18
330 306 346 10 19 356 4 306 307 330 332 319 288 244 340 289 286 236 297 56 345 309 329 6 255 276 268 238 230 244 257 252 263 278 251 272 243 97 211 97 74 37 18 344 359
322 309 358 52 79 326 337 282 287 203 288 283 285 295 276 264 243 253 270 197 185 281 45 316 271 268 277 303 330 282 299 266 249 263 256 242 258 260 274 327 335 326 338 323 332
332 18 350 309 338 321 284 296 305 306 306 295 279 234 296 299 290 269 312 277 221 200 232 241 278 283 281 292 296 285 277 274 266 264 260 267 271 265 259 41 248 288 309 302 300
321 333 321 287 281 288 239 277 298 323 304 289 249 306 316 275 301 304 321 297 314 328 250 253 264 279 274 269 261 266 264 264 262 261 265 268 268 283 295 237 258 285 304 315 303
333 294 295 289 290 269 18 360 314 313 274 266 317 304 280 353 320 312 298 284 281 284 287 271 266 276 278 283 288 268 265 261 254 254 256 260 267 275 287 254 292 288 297 309 317